Mora, MN

10:49 AM CDT on June 27, 2017 (GMT -0500)
Mora Municipal

Weather History for KJMR - October, 2012

Change the Weather History Date:

Saturday, October 20, 2012

  Actual Average Record
Temperature  
Mean Temperature 40 °F -  
Max Temperature 53 °F 55 °F 83 °F (1953)
Min Temperature 26 °F 29 °F 15 °F (1952)
Degree Days  
Heating Degree Days 26    
Moisture  
Dew Point 34 °F    
Average Humidity 81    
Maximum Humidity 100    
Minimum Humidity 54    
Precipitation  
Precipitation 0.00 in - - ()
Sea Level Pressure  
Sea Level Pressure 29.78 in    
Wind  
Wind Speed 2 mph (South)    
Max Wind Speed 8 mph    
Max Gust Speed 10 mph    
Visibility 10 miles    
Events      
Averages and records for this station are not official NWS values.
T = Trace of Precipitation, MM = Missing Value Source: NWS Daily Summary

Daily Weather History Graph

Daily Weather History Graph

Search for Another Location

Airport or City:

Trip Planner

Search our weather history database for the weather conditions in past years. The results will help you decide how hot, cold, wet, or windy it might be!

Date:

Astronomy

Oct. 20, 2012 Rise Set
Actual Time 7:37 AM CDT 6:17 PM CDT
Civil Twilight 7:06 AM CDT 6:47 PM CDT
Nautical Twilight 6:32 AM CDT 7:22 PM CDT
Astronomical Twilight 5:57 AM CDT 7:56 PM CDT
Moon 1:22 PM CDT (10/20) 10:55 PM CDT (10/20)
Length of Visible Light 11h 40m
Length of Day
10h 40m
Waxing Crescent, 34% of the Moon is Illuminated
Oct 20
Waxing Crescent
Oct 21
First Quarter
Oct 29
Full
Nov 6
Last Quarter
Nov 13
New

Hourly Weather History & Observations

Time (CDT) Temp. Windchill Dew Point Humidity Pressure Visibility Wind Dir Wind Speed Gust Speed Precip Events Conditions
12:01 AM 32.0 °F - 30.2 °F 93% 29.73 in 10.0 mi Calm Calm - N/A   Clear
12:21 AM 32.0 °F - 30.2 °F 93% 29.74 in 10.0 mi Calm Calm - N/A   Clear
12:41 AM 32.0 °F - 30.2 °F 93% 29.75 in 10.0 mi Calm Calm - N/A   Clear
1:01 AM 32.0 °F - 30.2 °F 93% 29.75 in 10.0 mi Calm Calm - N/A   Scattered Clouds
1:21 AM 32.0 °F - 30.2 °F 93% 29.75 in 7.0 mi Calm Calm - N/A   Scattered Clouds
1:41 AM 32.0 °F - 30.2 °F 93% 29.75 in 10.0 mi Calm Calm - N/A   Clear
2:01 AM 32.0 °F - 30.2 °F 93% 29.75 in 10.0 mi Calm Calm - N/A   Clear
2:21 AM 32.0 °F - 30.2 °F 93% 29.75 in 3.0 mi Calm Calm - N/A   Scattered Clouds
2:41 AM 30.2 °F - 28.4 °F 93% 29.76 in 7.0 mi Calm Calm - N/A   Overcast
3:01 AM 32.0 °F - 30.2 °F 93% 29.75 in 7.0 mi Calm Calm - N/A   Mostly Cloudy
3:21 AM 30.2 °F - 28.4 °F 93% 29.75 in 10.0 mi Calm Calm - N/A   Scattered Clouds
3:41 AM 30.2 °F - 28.4 °F 93% 29.76 in 7.0 mi Calm Calm - N/A   Clear
4:01 AM 30.2 °F - 28.4 °F 93% 29.76 in 10.0 mi Calm Calm - N/A   Clear
4:21 AM 30.2 °F - 30.2 °F 100% 29.77 in 2.0 mi Calm Calm - N/A   Mostly Cloudy
4:41 AM 30.2 °F - 28.4 °F 93% 29.77 in 7.0 mi Calm Calm - N/A   Mostly Cloudy
5:01 AM 30.2 °F - 28.4 °F 93% 29.77 in 7.0 mi Calm Calm - N/A   Mostly Cloudy
5:21 AM 28.4 °F - 26.6 °F 93% 29.77 in 10.0 mi Calm Calm - N/A   Scattered Clouds
5:41 AM 28.4 °F - 26.6 °F 93% 29.77 in 7.0 mi Calm Calm - N/A   Clear
6:01 AM 28.4 °F - 26.6 °F 93% 29.77 in 10.0 mi Calm Calm - N/A   Clear
6:21 AM 26.6 °F - 26.6 °F 100% 29.77 in 7.0 mi Calm Calm - N/A   Clear
6:41 AM 26.6 °F - 26.6 °F 100% 29.78 in 10.0 mi Calm Calm - N/A   Clear
7:01 AM 30.2 °F - 28.4 °F 93% 29.79 in 10.0 mi Calm Calm - N/A   Clear
7:21 AM 26.6 °F - 26.6 °F 100% 29.79 in 10.0 mi Calm Calm - N/A   Clear
7:41 AM 26.6 °F 22.6 °F 26.6 °F 100% 29.78 in 10.0 mi East 3.5 mph - N/A   Clear
8:01 AM 28.4 °F - 26.6 °F 93% 29.79 in 10.0 mi Calm Calm - N/A   Clear
8:21 AM 30.2 °F - 28.4 °F 93% 29.80 in 10.0 mi Calm Calm - N/A   Clear
8:41 AM 32.0 °F - 30.2 °F 93% 29.80 in 10.0 mi Calm Calm - N/A   Clear
9:01 AM 33.8 °F - 32.0 °F 93% 29.80 in 10.0 mi Calm Calm - N/A   Scattered Clouds
9:21 AM 35.6 °F - 33.8 °F 93% 29.80 in 10.0 mi Calm Calm - N/A   Scattered Clouds
9:41 AM 35.6 °F - 35.6 °F 100% 29.80 in 10.0 mi Calm Calm - N/A   Mostly Cloudy
10:01 AM 37.4 °F - 35.6 °F 93% 29.81 in 10.0 mi Calm Calm - N/A   Overcast
10:21 AM 39.2 °F - 35.6 °F 87% 29.82 in 10.0 mi Calm Calm - N/A   Overcast
10:41 AM 41.0 °F 39.0 °F 37.4 °F 87% 29.82 in 10.0 mi SSE 3.5 mph - N/A   Overcast
11:01 AM 42.8 °F - 37.4 °F 81% 29.81 in 10.0 mi Calm Calm - N/A   Mostly Cloudy
11:21 AM 44.6 °F 41.4 °F 39.2 °F 81% 29.80 in 10.0 mi South 5.8 mph - N/A   Mostly Cloudy
11:41 AM 44.6 °F 42.2 °F 37.4 °F 76% 29.80 in 10.0 mi South 4.6 mph - N/A   Mostly Cloudy
12:01 PM 48.2 °F - 37.4 °F 66% 29.81 in 10.0 mi SSW 5.8 mph - N/A   Mostly Cloudy
12:21 PM 46.4 °F 42.9 °F 37.4 °F 71% 29.81 in 10.0 mi SW 6.9 mph - N/A   Mostly Cloudy
12:41 PM 48.2 °F - 37.4 °F 66% 29.81 in 10.0 mi SSW 4.6 mph - N/A   Mostly Cloudy
1:01 PM 48.2 °F - 37.4 °F 66% 29.80 in 10.0 mi South 5.8 mph - N/A   Mostly Cloudy
1:21 PM 50.0 °F - 37.4 °F 62% 29.79 in 10.0 mi SSW 6.9 mph - N/A   Mostly Cloudy
1:41 PM 50.0 °F - 37.4 °F 62% 29.78 in 10.0 mi South 6.9 mph - N/A   Mostly Cloudy
2:01 PM 50.0 °F - 35.6 °F 58% 29.78 in 10.0 mi South 6.9 mph 10.4 mph N/A   Overcast
2:21 PM 53.6 °F - 37.4 °F 54% 29.78 in 10.0 mi South 8.1 mph - N/A   Overcast
2:41 PM 53.6 °F - 37.4 °F 54% 29.77 in 10.0 mi SW 8.1 mph - N/A   Scattered Clouds
3:01 PM 53.6 °F - 39.2 °F 58% 29.77 in 10.0 mi South 8.1 mph - N/A   Clear
3:21 PM 53.6 °F - 39.2 °F 58% 29.77 in 10.0 mi SSE 8.1 mph - N/A   Scattered Clouds
3:41 PM 53.6 °F - 37.4 °F 54% 29.77 in 10.0 mi South 5.8 mph - N/A   Mostly Cloudy
4:01 PM 53.6 °F - 37.4 °F 54% 29.77 in 10.0 mi South 8.1 mph - N/A   Scattered Clouds
4:21 PM 53.6 °F - 37.4 °F 54% 29.77 in 10.0 mi SSW 6.9 mph - N/A   Scattered Clouds
4:41 PM 53.6 °F - 37.4 °F 54% 29.77 in 10.0 mi SSW 8.1 mph - N/A   Scattered Clouds
5:01 PM 53.6 °F - 37.4 °F 54% 29.77 in 10.0 mi SSW 8.1 mph - N/A   Clear
5:21 PM 53.6 °F - 37.4 °F 54% 29.77 in 10.0 mi SSW 8.1 mph - N/A   Clear
5:41 PM 50.0 °F - 37.4 °F 62% 29.77 in 10.0 mi South 6.9 mph - N/A   Clear
6:01 PM 50.0 °F - 39.2 °F 66% 29.78 in 10.0 mi SSW 6.9 mph - N/A   Clear
6:21 PM 50.0 °F - 41.0 °F 71% 29.79 in 10.0 mi SSW 3.5 mph - N/A   Scattered Clouds
6:41 PM 50.0 °F - 37.4 °F 62% 29.79 in 10.0 mi Calm Calm - N/A   Scattered Clouds
7:01 PM 46.4 °F - 37.4 °F 71% 29.79 in 10.0 mi Calm Calm - N/A   Scattered Clouds
7:21 PM 44.6 °F - 37.4 °F 76% 29.78 in 10.0 mi Calm Calm - N/A   Scattered Clouds
7:41 PM 44.6 °F 42.2 °F 37.4 °F 76% 29.79 in 10.0 mi WSW 4.6 mph - N/A   Mostly Cloudy
8:01 PM 44.6 °F - 39.2 °F 81% 29.79 in 10.0 mi Calm Calm - N/A   Scattered Clouds
8:21 PM 44.6 °F 43.1 °F 41.0 °F 87% 29.80 in 10.0 mi SW 3.5 mph - N/A   Clear
8:41 PM 42.8 °F 41.1 °F 37.4 °F 81% 29.81 in 10.0 mi SSW 3.5 mph - N/A   Clear
9:01 PM 42.8 °F 41.1 °F 37.4 °F 81% 29.81 in 10.0 mi SSW 3.5 mph - N/A   Clear
9:21 PM 42.8 °F - 37.4 °F 81% 29.81 in 10.0 mi Calm Calm - N/A   Clear
9:41 PM 37.4 °F 34.9 °F 33.8 °F 87% 29.80 in 10.0 mi SE 3.5 mph - N/A   Clear
10:01 PM 39.2 °F 37.0 °F 37.4 °F 93% 29.81 in 10.0 mi SSE 3.5 mph - N/A   Clear
10:21 PM 39.2 °F 35.9 °F 35.6 °F 87% 29.81 in 10.0 mi South 4.6 mph - N/A   Scattered Clouds
10:41 PM 42.8 °F 39.3 °F 39.2 °F 87% 29.81 in 10.0 mi SSW 5.8 mph - N/A   Scattered Clouds
11:01 PM 44.6 °F 42.2 °F 41.0 °F 87% 29.81 in 10.0 mi South 4.6 mph - N/A   Mostly Cloudy
11:41 PM 42.8 °F 41.1 °F 39.2 °F 87% 29.81 in 10.0 mi SSE 3.5 mph - N/A   Scattered Clouds